Time,TemperatureF,DewpointF,PressureIn,WindDirection,WindDirectionDegrees,WindSpeedMPH,WindSpeedGustMPH,Humidity,HourlyPrecipIn,Conditions,Clouds,dailyrainin,SoftwareType,DateUTC
2013-05-15 00:00:00,55.0,39.0,-100.00,NNW,331,1.0,-999.0,53,0.00,,,-99.99,,2013-05-15 07:00:00,
2013-05-15 00:22:00,55.0,39.0,-100.00,NNW,331,1.0,-999.0,53,0.00,,,-99.99,,2013-05-15 07:22:00,
2013-05-15 00:32:00,55.0,39.0,-100.00,NNW,331,1.0,-999.0,53,0.00,,,-99.99,,2013-05-15 07:32:00,
2013-05-15 00:42:00,55.0,39.0,-100.00,NNW,331,1.0,-999.0,53,0.00,,,-99.99,,2013-05-15 07:42:00,
2013-05-15 00:52:00,55.0,39.0,-100.00,NNW,331,1.0,-999.0,53,0.00,,,-99.99,,2013-05-15 07:52:00,
2013-05-15 01:00:00,54.0,38.0,-100.00,North,350,2.0,-999.0,55,0.00,,,-99.99,,2013-05-15 08:00:00,
2013-05-15 01:21:00,54.0,38.0,-100.00,North,350,2.0,-999.0,55,0.00,,,-99.99,,2013-05-15 08:21:00,
2013-05-15 01:32:00,54.0,38.0,-100.00,North,350,2.0,-999.0,55,0.00,,,-99.99,,2013-05-15 08:32:00,
2013-05-15 01:42:00,54.0,38.0,-100.00,North,350,2.0,-999.0,55,0.00,,,-99.99,,2013-05-15 08:42:00,
2013-05-15 01:53:00,54.0,38.0,-100.00,North,350,2.0,-999.0,55,0.00,,,-99.99,,2013-05-15 08:53:00,
2013-05-15 02:00:00,52.0,37.0,-100.00,NNE,17,1.0,-999.0,56,0.00,,,-99.99,,2013-05-15 09:00:00,
2013-05-15 02:22:00,52.0,37.0,-100.00,NNE,17,1.0,-999.0,56,0.00,,,-99.99,,2013-05-15 09:22:00,
2013-05-15 02:33:00,52.0,37.0,-100.00,NNE,17,1.0,-999.0,56,0.00,,,-99.99,,2013-05-15 09:33:00,
2013-05-15 02:42:00,52.0,37.0,-100.00,NNE,17,1.0,-999.0,56,0.00,,,-99.99,,2013-05-15 09:42:00,
2013-05-15 02:53:00,52.0,37.0,-100.00,NNE,17,1.0,-999.0,56,0.00,,,-99.99,,2013-05-15 09:53:00,
2013-05-15 03:00:00,51.0,36.0,-100.00,NW,318,1.0,-999.0,55,0.00,,,-99.99,,2013-05-15 10:00:00,
2013-05-15 03:23:00,51.0,36.0,-100.00,NW,318,1.0,-999.0,55,0.00,,,-99.99,,2013-05-15 10:23:00,
2013-05-15 03:32:00,51.0,36.0,-100.00,NW,318,1.0,-999.0,55,0.00,,,-99.99,,2013-05-15 10:32:00,
2013-05-15 03:42:00,51.0,36.0,-100.00,NW,318,1.0,-999.0,55,0.00,,,-99.99,,2013-05-15 10:42:00,
2013-05-15 03:52:00,51.0,36.0,-100.00,NW,318,1.0,-999.0,55,0.00,,,-99.99,,2013-05-15 10:52:00,
2013-05-15 04:00:00,50.0,37.0,-100.00,South,171,1.0,-999.0,59,0.00,,,-99.99,,2013-05-15 11:00:00,
2013-05-15 04:29:00,50.0,37.0,-100.00,South,171,1.0,-999.0,59,0.00,,,-99.99,,2013-05-15 11:29:00,
2013-05-15 04:38:00,50.0,37.0,-100.00,South,171,1.0,-999.0,59,0.00,,,-99.99,,2013-05-15 11:38:00,
2013-05-15 04:49:00,50.0,37.0,-100.00,South,171,1.0,-999.0,59,0.00,,,-99.99,,2013-05-15 11:49:00,
2013-05-15 04:57:00,50.0,37.0,-100.00,South,171,1.0,-999.0,59,0.00,,,-99.99,,2013-05-15 11:57:00,
2013-05-15 05:00:00,47.0,36.0,-100.00,NNW,347,2.0,-999.0,64,0.00,,,-99.99,,2013-05-15 12:00:00,
2013-05-15 05:30:00,47.0,36.0,-100.00,NNW,347,2.0,-999.0,64,0.00,,,-99.99,,2013-05-15 12:30:00,
2013-05-15 05:38:00,47.0,36.0,-100.00,NNW,347,2.0,-999.0,64,0.00,,,-99.99,,2013-05-15 12:38:00,
2013-05-15 05:49:00,47.0,36.0,-100.00,NNW,347,2.0,-999.0,64,0.00,,,-99.99,,2013-05-15 12:49:00,
2013-05-15 05:56:00,47.0,36.0,-100.00,NNW,347,2.0,-999.0,64,0.00,,,-99.99,,2013-05-15 12:56:00,
2013-05-15 06:00:00,49.0,36.0,-100.00,NNW,338,2.0,-999.0,61,0.00,,,-99.99,,2013-05-15 13:00:00,
2013-05-15 06:37:00,49.0,36.0,-100.00,NNW,338,2.0,-999.0,61,0.00,,,-99.99,,2013-05-15 13:37:00,
2013-05-15 06:48:00,49.0,36.0,-100.00,NNW,338,2.0,-999.0,61,0.00,,,-99.99,,2013-05-15 13:48:00,
2013-05-15 06:57:00,49.0,36.0,-100.00,NNW,338,2.0,-999.0,61,0.00,,,-99.99,,2013-05-15 13:57:00,
2013-05-15 07:00:00,48.0,37.0,-100.00,South,176,0.0,-999.0,64,0.00,,,-99.99,,2013-05-15 14:00:00,
2013-05-15 07:28:00,48.0,37.0,-100.00,South,176,0.0,-999.0,64,0.00,,,-99.99,,2013-05-15 14:28:00,
2013-05-15 07:39:00,48.0,37.0,-100.00,South,176,0.0,-999.0,64,0.00,,,-99.99,,2013-05-15 14:39:00,
2013-05-15 07:49:00,48.0,37.0,-100.00,South,176,0.0,-999.0,64,0.00,,,-99.99,,2013-05-15 14:49:00,
2013-05-15 08:00:00,51.0,35.0,-100.00,North,6,1.0,-999.0,54,0.00,,,-99.99,,2013-05-15 15:00:00,
2013-05-15 08:29:00,51.0,35.0,-100.00,North,6,1.0,-999.0,54,0.00,,,-99.99,,2013-05-15 15:29:00,
2013-05-15 08:39:00,51.0,35.0,-100.00,North,6,1.0,-999.0,54,0.00,,,-99.99,,2013-05-15 15:39:00,
2013-05-15 08:48:00,51.0,35.0,-100.00,North,6,1.0,-999.0,54,0.00,,,-99.99,,2013-05-15 15:48:00,
2013-05-15 08:58:00,51.0,35.0,-100.00,North,6,1.0,-999.0,54,0.00,,,-99.99,,2013-05-15 15:58:00,
2013-05-15 09:00:00,56.0,37.0,-100.00,NW,322,2.0,-999.0,48,0.00,,,-99.99,,2013-05-15 16:00:00,
2013-05-15 09:29:00,56.0,37.0,-100.00,NW,322,2.0,-999.0,48,0.00,,,-99.99,,2013-05-15 16:29:00,
2013-05-15 09:38:00,56.0,37.0,-100.00,NW,322,2.0,-999.0,48,0.00,,,-99.99,,2013-05-15 16:38:00,
2013-05-15 09:49:00,56.0,37.0,-100.00,NW,322,2.0,-999.0,48,0.00,,,-99.99,,2013-05-15 16:49:00,
2013-05-15 09:56:00,56.0,37.0,-100.00,NW,322,2.0,-999.0,48,0.00,,,-99.99,,2013-05-15 16:56:00,
2013-05-15 10:00:00,62.0,34.0,-100.00,NNW,332,5.0,-999.0,35,0.00,,,-99.99,,2013-05-15 17:00:00,
2013-05-15 10:28:00,62.0,34.0,-100.00,NNW,332,5.0,-999.0,35,0.00,,,-99.99,,2013-05-15 17:28:00,
2013-05-15 10:38:00,62.0,34.0,-100.00,NNW,332,5.0,-999.0,35,0.00,,,-99.99,,2013-05-15 17:38:00,
2013-05-15 10:47:00,62.0,34.0,-100.00,NNW,332,5.0,-999.0,35,0.00,,,-99.99,,2013-05-15 17:47:00,
2013-05-15 10:57:00,62.0,34.0,-100.00,NNW,332,5.0,-999.0,35,0.00,,,-99.99,,2013-05-15 17:57:00,
2013-05-15 11:00:00,64.0,35.0,-100.00,NNW,337,2.0,-999.0,33,0.00,,,-99.99,,2013-05-15 18:00:00,
2013-05-15 11:28:00,64.0,35.0,-100.00,NNW,337,2.0,-999.0,33,0.00,,,-99.99,,2013-05-15 18:28:00,
2013-05-15 11:38:00,64.0,35.0,-100.00,NNW,337,2.0,-999.0,33,0.00,,,-99.99,,2013-05-15 18:38:00,
2013-05-15 11:47:00,64.0,35.0,-100.00,NNW,337,2.0,-999.0,33,0.00,,,-99.99,,2013-05-15 18:47:00,
2013-05-15 11:55:00,64.0,35.0,-100.00,NNW,337,2.0,-999.0,33,0.00,,,-99.99,,2013-05-15 18:55:00,
2013-05-15 12:00:00,66.0,36.0,-100.00,NNW,328,3.0,-999.0,33,0.00,,,-99.99,,2013-05-15 19:00:00,
2013-05-15 12:39:00,66.0,36.0,-100.00,NNW,328,3.0,-999.0,33,0.00,,,-99.99,,2013-05-15 19:39:00,
2013-05-15 12:47:00,66.0,36.0,-100.00,NNW,328,3.0,-999.0,33,0.00,,,-99.99,,2013-05-15 19:47:00,
2013-05-15 12:56:00,66.0,36.0,-100.00,NNW,328,3.0,-999.0,33,0.00,,,-99.99,,2013-05-15 19:56:00,
2013-05-15 13:00:00,69.0,39.0,-100.00,NNW,336,6.0,-999.0,33,0.00,,,-99.99,,2013-05-15 20:00:00,
2013-05-15 13:31:00,69.0,39.0,-100.00,NNW,336,6.0,-999.0,33,0.00,,,-99.99,,2013-05-15 20:31:00,
2013-05-15 13:40:00,69.0,39.0,-100.00,NNW,336,6.0,-999.0,33,0.00,,,-99.99,,2013-05-15 20:40:00,
2013-05-15 13:47:00,69.0,39.0,-100.00,NNW,336,6.0,-999.0,33,0.00,,,-99.99,,2013-05-15 20:47:00,
2013-05-15 13:54:00,69.0,39.0,-100.00,NNW,336,6.0,-999.0,33,0.00,,,-99.99,,2013-05-15 20:54:00,
2013-05-15 14:00:00,72.0,41.0,-100.00,NNW,339,2.0,-999.0,33,0.00,,,-99.99,,2013-05-15 21:00:00,
2013-05-15 14:52:00,72.0,41.0,-100.00,NNW,339,2.0,-999.0,33,0.00,,,-99.99,,2013-05-15 21:52:00,
2013-05-15 14:59:00,72.0,41.0,-100.00,NNW,339,2.0,-999.0,33,0.00,,,-99.99,,2013-05-15 21:59:00,
2013-05-15 15:00:00,72.0,43.0,-100.00,NNW,342,4.0,-999.0,34,0.00,,,-99.99,,2013-05-15 22:00:00,
2013-05-15 15:30:00,72.0,43.0,-100.00,NNW,342,4.0,-999.0,34,0.00,,,-99.99,,2013-05-15 22:30:00,
2013-05-15 15:41:00,72.0,43.0,-100.00,NNW,342,4.0,-999.0,34,0.00,,,-99.99,,2013-05-15 22:41:00,
2013-05-15 15:56:00,72.0,43.0,-100.00,NNW,342,4.0,-999.0,34,0.00,,,-99.99,,2013-05-15 22:56:00,
2013-05-15 16:00:00,72.0,45.0,-100.00,East,92,1.0,-999.0,38,0.00,,,-99.99,,2013-05-15 23:00:00,
2013-05-15 16:39:00,72.0,45.0,-100.00,East,92,1.0,-999.0,38,0.00,,,-99.99,,2013-05-15 23:39:00,
2013-05-15 16:50:00,72.0,45.0,-100.00,East,92,1.0,-999.0,38,0.00,,,-99.99,,2013-05-15 23:50:00,
2013-05-15 16:57:00,72.0,45.0,-100.00,East,92,1.0,-999.0,38,0.00,,,-99.99,,2013-05-15 23:57:00,
2013-05-15 17:27:00,70.0,44.0,-100.00,NNW,336,2.0,-999.0,39,0.00,,,-99.99,,2013-05-16 00:27:00,
2013-05-15 17:37:00,70.0,44.0,-100.00,NNW,336,2.0,-999.0,39,0.00,,,-99.99,,2013-05-16 00:37:00,
2013-05-15 17:51:00,70.0,44.0,-100.00,NNW,336,2.0,-999.0,39,0.00,,,-99.99,,2013-05-16 00:51:00,
2013-05-15 18:00:00,65.0,45.0,-100.00,North,353,6.0,-999.0,47,0.00,,,-99.99,,2013-05-16 01:00:00,
2013-05-15 18:30:00,65.0,45.0,-100.00,North,353,6.0,-999.0,47,0.00,,,-99.99,,2013-05-16 01:30:00,
2013-05-15 18:39:00,65.0,45.0,-100.00,North,353,6.0,-999.0,47,0.00,,,-99.99,,2013-05-16 01:39:00,
2013-05-15 18:49:00,65.0,45.0,-100.00,North,353,6.0,-999.0,47,0.00,,,-99.99,,2013-05-16 01:49:00,
2013-05-15 18:57:00,65.0,45.0,-100.00,North,353,6.0,-999.0,47,0.00,,,-99.99,,2013-05-16 01:57:00,
2013-05-15 19:00:00,64.0,44.0,-100.00,NW,320,3.0,-999.0,47,0.00,,,-99.99,,2013-05-16 02:00:00,
2013-05-15 19:28:00,64.0,44.0,-100.00,NW,320,3.0,-999.0,47,0.00,,,-99.99,,2013-05-16 02:28:00,
2013-05-15 19:40:00,64.0,44.0,-100.00,NW,320,3.0,-999.0,47,0.00,,,-99.99,,2013-05-16 02:40:00,
2013-05-15 19:47:00,64.0,44.0,-100.00,NW,320,3.0,-999.0,47,0.00,,,-99.99,,2013-05-16 02:47:00,
2013-05-15 19:54:00,64.0,44.0,-100.00,NW,320,3.0,-999.0,47,0.00,,,-99.99,,2013-05-16 02:54:00,
2013-05-15 20:00:00,61.0,43.0,-100.00,NW,309,6.0,-999.0,50,0.00,,,-99.99,,2013-05-16 03:00:00,
2013-05-15 20:27:00,61.0,43.0,-100.00,NW,309,6.0,-999.0,50,0.00,,,-99.99,,2013-05-16 03:27:00,
2013-05-15 20:39:00,61.0,43.0,-100.00,NW,309,6.0,-999.0,50,0.00,,,-99.99,,2013-05-16 03:39:00,
2013-05-15 20:46:00,61.0,43.0,-100.00,NW,309,6.0,-999.0,50,0.00,,,-99.99,,2013-05-16 03:46:00,
2013-05-15 20:56:00,61.0,43.0,-100.00,NW,309,6.0,-999.0,50,0.00,,,-99.99,,2013-05-16 03:56:00,
2013-05-15 21:00:00,59.0,44.0,-100.00,NNW,329,3.0,-999.0,57,0.00,,,-99.99,,2013-05-16 04:00:00,
2013-05-15 21:23:00,59.0,44.0,-100.00,NNW,329,3.0,-999.0,57,0.00,,,-99.99,,2013-05-16 04:23:00,
2013-05-15 21:33:00,59.0,44.0,-100.00,NNW,329,3.0,-999.0,57,0.00,,,-99.99,,2013-05-16 04:33:00,
2013-05-15 21:42:00,59.0,44.0,-100.00,NNW,329,3.0,-999.0,57,0.00,,,-99.99,,2013-05-16 04:42:00,
2013-05-15 21:53:00,59.0,44.0,-100.00,NNW,329,3.0,-999.0,57,0.00,,,-99.99,,2013-05-16 04:53:00,
2013-05-15 22:00:00,57.0,45.0,-100.00,NNW,338,1.0,-999.0,64,0.00,,,-99.99,,2013-05-16 05:00:00,
2013-05-15 22:22:00,57.0,45.0,-100.00,NNW,338,1.0,-999.0,64,0.00,,,-99.99,,2013-05-16 05:22:00,
2013-05-15 22:32:00,57.0,45.0,-100.00,NNW,338,1.0,-999.0,64,0.00,,,-99.99,,2013-05-16 05:32:00,
2013-05-15 22:42:00,57.0,45.0,-100.00,NNW,338,1.0,-999.0,64,0.00,,,-99.99,,2013-05-16 05:42:00,
2013-05-15 22:52:00,57.0,45.0,-100.00,NNW,338,1.0,-999.0,64,0.00,,,-99.99,,2013-05-16 05:52:00,
2013-05-15 23:00:00,56.0,46.0,-100.00,NNW,338,4.0,-999.0,68,0.00,,,-99.99,,2013-05-16 06:00:00,
2013-05-15 23:23:00,56.0,46.0,-100.00,NNW,338,4.0,-999.0,68,0.00,,,-99.99,,2013-05-16 06:23:00,
2013-05-15 23:33:00,56.0,46.0,-100.00,NNW,338,4.0,-999.0,68,0.00,,,-99.99,,2013-05-16 06:33:00,
2013-05-15 23:43:00,56.0,46.0,-100.00,NNW,338,4.0,-999.0,68,0.00,,,-99.99,,2013-05-16 06:43:00,
2013-05-15 23:53:00,56.0,46.0,-100.00,NNW,338,4.0,-999.0,68,0.00,,,-99.99,,2013-05-16 06:53:00,